Погода в Тельвиске

Россия / Ненецкий автономный округ     67°38′00″N   52°53′11″E
темп.,
°C
ветер,
м/с
пор.,
м/с
влажн.,
%
обл.,
%
осадки,
мм/ч
давл.,
гПа
погр.,
м
15 апреля, чт
чт1500:00−2з8158717 0.0 1005599
03:00−3з9168798 0.0 1006806
06:00−2з11188795 0.0 10061107
09:00−4сз81179100 0.1 1011883
12:00−4с6773100 0.1 10161051
15:00−5с566998 0.1 1021994
18:00−6ссз23745 0.0 1023399
21:00−7ююз34865 0.0 102496
16 апреля, пт
пт1600:00−7ююз61288100 0.0 1022313
03:00−3зсз612845 0.3 1022394
06:00−3з8148553 0.1 1021636
09:00−3сз8127999 0.1 10231192
12:00−3сз9136380 0.1 10251371
15:00−4ссз7106759 0.1 10281101
18:00−6ссз3574100 0.0 1028504
21:00−6юз1281100 0.0 1027161
17 апреля, сб
сб1700:00−6ююз5891100 0.1 1024443
03:00−5юз4894100 0.8 1020334
06:00−3зюз51297100 0.6 1018555
09:00−1сз6991100 2.2 1016771
12:00−1с6891100 1.4 1016673
15:00−1ссз7108084 2.0 1018975
18:00−4с612855 0.1 1022494
21:00−7ссв613875 0.2 1028523
18 апреля, вс
вс1800:00−9с599157 0.0 1032279
03:00−11с35905 0.0 1034111
06:00−9сз248981 0.0 1036139
09:00−7ссз48745 0.0 1038622
12:00−5сз468094 0.0 1039797
15:00−5зсз457938 0.0 1039539
18:00−6з369067 0.0 1039165
21:00−8з3690100 0.0 1038116
19 апреля, пн
пн1900:00−7зюз4888100 0.0 1037184
03:00−7юз51184100 0.0 1036292
06:00−6юз61181100 0.0 1034303
09:00−2зюз61379100 0.0 1032394
12:000з7148098 0.0 1031546
15:00+1з71480100 0.0 1030497
18:00−1з6128360 0.0 1029268
21:00−3з4108850 0.0 1029165